GFSNIL_prec_pwat_087.txt.gz
Precipitable_Water
1.19 1.16 1.16 1.19 1.12 1.04 1.06 1.10 1.14 1.14 1.14 1.08 1.09 1.07 1.04 1.03 1.06 1.07 1.05 1.01 0.99 0.97
1.06 1.07 1.04 1.07 1.07 1.01 1.01 1.01 1.02 1.07 1.10 1.12 1.08 1.06 1.04 1.03 1.02 1.04 1.02 0.99 1.01 1.01
1.00 1.04 1.04 1.05 1.00 0.98 0.96 0.96 0.97 0.98 1.04 1.13 1.07 1.05 1.07 1.04 1.03 1.01 1.00 1.01 1.02 1.07
0.95 1.01 1.05 1.03 1.01 1.02 1.00 0.96 0.96 0.99 1.00 1.05 1.01 1.02 1.04 1.01 1.01 0.98 1.00 1.06 1.08 1.08
0.93 0.97 1.01 1.03 1.03 1.04 1.00 1.02 1.04 1.03 1.01 1.02 1.01 1.01 0.98 0.96 0.98 0.97 0.98 1.02 1.07 1.10
0.87 0.92 0.93 0.98 1.04 1.08 1.06 1.05 1.07 1.07 1.02 1.01 0.99 0.98 1.00 1.00 1.01 1.01 1.03 1.05 1.06 1.06
0.85 0.88 0.92 0.98 1.05 1.04 1.05 1.02 1.04 1.07 1.08 1.08 1.04 1.02 1.03 1.01 1.00 1.01 1.02 1.03 1.04 1.06
0.91 0.90 0.91 0.93 0.97 0.99 1.00 1.01 1.07 1.09 1.07 1.02 1.02 1.00 0.99 0.97 0.96 0.95 0.97 1.06 1.12 1.16
0.97 0.94 0.91 0.87 0.87 0.90 0.94 0.97 1.01 1.02 1.01 1.04 1.04 1.06 1.07 1.12 1.13 1.14 1.10 1.05 1.04 1.04
0.89 0.90 0.92 0.94 0.88 0.84 0.85 0.88 0.91 0.98 1.02 1.05 1.12 1.16 1.20 1.21 1.17 1.11 1.06 1.01 0.95 0.93
0.84 0.82 0.85 0.87 0.87 0.88 0.89 0.86 0.87 0.96 1.06 1.08 1.12 1.15 1.16 1.15 1.11 1.05 0.98 0.92 0.89 0.88
0.83 0.83 0.85 0.85 0.88 0.93 0.94 0.91 0.92 0.94 0.95 0.96 0.98 1.03 1.03 1.02 0.97 0.92 0.84 0.84 0.83 0.81
0.91 0.89 0.90 0.93 0.90 0.92 0.94 0.91 0.90 0.87 0.89 0.89 0.88 0.90 0.91 0.92 0.88 0.84 0.81 0.78 0.80 0.81
0.97 0.97 0.97 0.94 0.95 0.92 0.89 0.88 0.84 0.82 0.82 0.85 0.87 0.86 0.87 0.88 0.85 0.79 0.77 0.76 0.76 0.76

GFSNIL_prec_pwat_090.txt.gz
Precipitable_Water
1.18 1.19 1.19 1.12 1.10 1.06 1.06 1.02 1.03 1.01 1.06 1.10 1.19 1.16 1.13 1.12 1.13 1.09 0.96 0.93 0.94 0.92
1.05 1.04 1.04 1.03 1.06 1.04 1.08 1.08 1.03 1.02 1.00 1.14 1.12 1.09 1.08 1.07 1.01 0.99 0.95 0.96 0.99 0.98
1.00 1.01 1.02 1.02 0.94 0.96 0.96 0.98 0.99 1.00 1.01 1.03 1.12 1.09 1.06 1.04 1.00 0.97 0.97 1.00 0.99 0.96
0.95 0.98 0.98 0.98 1.00 0.96 0.93 0.91 0.94 0.98 1.01 1.08 1.09 1.12 1.07 1.04 1.01 0.98 0.98 1.01 1.01 1.03
0.95 0.98 0.99 0.98 1.01 1.05 1.00 0.93 0.91 0.94 0.97 1.00 1.08 1.08 1.10 1.09 1.06 0.98 0.99 0.98 0.99 0.98
0.87 0.93 0.97 1.00 1.04 1.06 1.05 1.02 0.98 0.94 0.93 0.95 0.99 1.02 1.02 1.04 1.04 1.00 1.01 1.02 1.00 1.01
0.79 0.86 0.90 0.98 1.05 1.09 1.10 1.05 1.02 0.98 0.99 0.99 1.04 1.07 1.08 1.04 1.04 1.04 1.03 1.03 1.03 1.05
0.83 0.88 0.89 0.91 0.98 1.05 1.08 1.07 1.05 1.04 1.02 1.04 1.06 1.10 1.11 1.08 1.05 1.02 1.00 1.02 1.06 1.06
0.96 0.96 0.93 0.90 0.92 0.94 0.97 1.01 1.02 1.00 1.00 1.00 1.09 1.13 1.10 1.06 1.06 1.07 1.06 1.03 1.05 1.07
1.00 1.01 1.00 1.00 0.98 0.93 0.88 0.90 0.91 0.94 0.98 1.00 1.06 1.07 1.08 1.09 1.09 1.07 1.08 1.10 1.11 1.09
1.02 1.03 1.05 1.00 0.97 0.97 0.97 0.89 0.87 0.89 0.95 0.96 0.95 1.03 1.09 1.12 1.12 1.11 1.10 1.12 1.08 1.05
1.05 1.04 1.04 0.98 0.96 1.00 1.00 1.00 0.99 0.96 0.92 0.90 0.89 0.93 0.99 1.04 1.05 1.03 1.04 1.00 0.99 0.96
1.04 1.04 1.00 1.00 1.00 0.99 0.96 0.94 0.96 0.95 0.97 0.96 0.94 0.94 0.97 0.98 0.96 0.92 0.89 0.90 0.88 0.85
1.08 1.05 1.04 1.00 1.00 0.98 0.97 0.96 0.95 0.94 0.94 0.95 0.95 0.93 0.91 0.91 0.89 0.87 0.83 0.80 0.79 0.78

GFSNIL_prec_pwat_093.txt.gz
Precipitable_Water
1.07 1.15 1.19 1.18 1.15 1.10 1.09 1.11 1.14 1.17 1.17 1.12 1.11 1.13 1.12 1.10 1.16 1.20 1.17 1.11 1.15 1.11
0.95 1.02 1.09 1.11 1.10 1.10 1.09 1.09 1.11 1.07 1.16 1.12 1.11 1.10 1.11 1.12 1.13 1.12 1.08 1.09 1.05 1.00
0.92 0.96 1.00 0.99 0.97 0.98 1.02 1.05 1.06 1.01 0.99 1.02 1.04 1.13 1.13 1.17 1.18 1.10 1.08 1.07 0.99 0.95
0.90 0.94 0.96 0.97 0.95 0.96 0.94 0.96 0.94 0.92 0.89 0.88 0.90 1.00 1.06 1.10 1.07 1.04 1.04 1.01 0.96 0.94
0.92 0.94 0.92 0.93 0.96 0.97 0.92 0.91 0.90 0.88 0.87 0.88 0.91 0.99 1.06 1.07 1.05 1.01 0.99 0.98 0.99 0.96
0.84 0.90 0.91 0.94 0.98 1.00 0.99 0.96 0.92 0.90 0.91 0.93 0.96 0.98 1.03 1.06 1.10 1.13 1.09 1.06 1.03 1.01
0.79 0.83 0.89 0.93 0.94 0.99 1.02 1.00 0.96 0.92 0.89 0.89 0.93 1.00 1.06 1.08 1.06 1.05 1.05 1.06 1.07 1.07
0.79 0.84 0.88 0.90 0.93 0.95 0.98 1.00 1.02 1.00 0.95 0.90 0.89 0.92 1.00 1.04 1.06 1.06 1.04 1.05 1.08 1.09
0.86 0.86 0.87 0.91 0.94 0.96 0.96 0.97 0.97 0.98 0.97 0.94 0.92 0.90 0.90 0.96 1.01 1.04 1.08 1.07 1.04 1.05
0.95 0.93 0.93 0.93 0.94 0.95 0.97 1.01 0.95 0.94 0.96 0.94 0.95 0.95 0.96 1.00 1.04 1.07 1.08 1.07 1.05 1.04
1.00 1.01 1.05 1.05 1.00 0.99 0.97 0.96 1.00 0.98 0.97 0.95 0.93 0.96 0.98 1.02 1.04 1.04 1.07 1.06 1.07 1.05
1.04 1.06 1.09 1.07 1.09 1.13 1.09 1.06 1.03 1.01 0.97 0.96 0.95 0.98 1.00 1.02 1.01 0.98 0.96 0.97 0.98 0.97
1.07 1.02 1.05 1.12 1.17 1.18 1.16 1.04 1.02 1.02 1.01 1.01 0.98 0.98 0.99 1.02 1.00 0.94 0.91 0.90 0.89 0.85
1.12 1.09 1.08 1.10 1.11 1.11 1.06 1.01 0.99 0.99 0.98 0.99 1.02 1.01 1.01 1.03 1.00 0.96 0.89 0.85 0.83 0.81

GFSNIL_prec_pwat_096.txt.gz
Precipitable_Water
1.01 1.10 1.20 1.20 1.20 1.20 1.21 1.26 1.29 1.26 1.26 1.24 1.22 1.21 1.16 1.10 1.05 1.05 1.02 1.00 0.96 0.95
0.95 1.01 1.11 1.22 1.22 1.20 1.20 1.22 1.24 1.26 1.23 1.22 1.20 1.17 1.11 1.07 1.08 1.07 1.04 1.04 1.08 1.07
0.89 0.94 0.99 1.04 1.09 1.11 1.13 1.16 1.16 1.19 1.21 1.20 1.18 1.17 1.15 1.11 1.12 1.08 1.09 1.15 1.14 1.11
0.83 0.89 0.91 0.93 0.98 1.00 1.02 1.07 1.10 1.09 1.10 1.15 1.14 1.10 1.07 1.06 1.07 1.05 1.09 1.13 1.13 1.12
0.83 0.86 0.86 0.88 0.92 0.96 0.93 0.92 0.98 0.98 0.94 0.99 1.01 1.01 1.00 0.99 1.03 1.05 1.05 1.08 1.09 1.07
0.80 0.84 0.86 0.90 0.95 0.96 0.96 0.92 0.90 0.88 0.88 0.87 0.90 0.93 0.97 1.02 1.04 1.05 1.06 1.05 1.04 1.03
0.77 0.82 0.86 0.92 0.94 0.96 0.98 0.97 0.96 0.95 0.89 0.90 0.88 0.87 0.89 0.93 0.98 1.04 1.07 1.09 1.08 1.06
0.79 0.83 0.86 0.88 0.91 0.94 0.95 0.97 0.99 0.96 0.93 0.90 0.89 0.89 0.89 0.89 0.91 0.93 0.95 1.05 1.11 1.12
0.79 0.83 0.85 0.85 0.89 0.92 0.94 0.95 0.95 0.94 0.93 0.90 0.88 0.88 0.88 0.91 0.93 0.98 1.01 1.02 1.06 1.06
0.94 0.86 0.85 0.90 0.89 0.88 0.90 0.96 0.95 0.95 0.95 0.91 0.92 0.93 0.91 0.90 0.90 0.90 0.92 0.99 1.01 1.00
1.04 1.03 1.01 0.94 0.90 0.93 0.95 0.93 0.96 0.98 0.98 0.97 0.95 0.97 0.98 0.96 0.92 0.86 0.87 0.91 0.93 0.96
1.13 1.08 1.09 1.06 1.02 1.03 1.04 1.03 1.03 1.02 1.03 1.01 0.97 0.98 0.98 0.97 0.94 0.90 0.91 0.93 0.94 0.95
1.14 1.12 1.09 1.10 1.12 1.18 1.18 1.14 1.09 1.08 1.08 1.05 1.03 1.03 1.04 1.03 0.98 0.92 0.90 0.89 0.92 0.94
1.11 1.16 1.19 1.20 1.21 1.15 1.13 1.13 1.12 1.10 1.10 1.05 1.02 1.02 1.03 1.06 1.05 0.99 0.95 0.90 0.90 0.88

GFSNIL_prec_pwat_099.txt.gz
Precipitable_Water
0.82 0.94 1.00 1.16 1.17 1.16 1.16 1.22 1.31 1.34 1.37 1.37 1.35 1.29 1.24 1.19 1.15 1.12 1.04 1.01 1.02 1.01
0.82 0.89 0.96 1.14 1.20 1.21 1.23 1.24 1.26 1.31 1.31 1.30 1.31 1.26 1.22 1.17 1.16 1.11 1.08 1.05 1.03 1.00
0.80 0.87 0.94 1.03 1.13 1.18 1.21 1.24 1.24 1.25 1.25 1.23 1.24 1.20 1.18 1.18 1.14 1.10 1.08 1.06 1.02 1.04
0.78 0.84 0.89 0.93 0.98 1.04 1.12 1.18 1.23 1.25 1.24 1.22 1.21 1.21 1.17 1.15 1.13 1.06 1.06 1.08 1.06 1.02
0.77 0.81 0.83 0.87 0.92 0.96 0.99 1.04 1.08 1.13 1.15 1.18 1.21 1.20 1.16 1.14 1.11 1.06 1.03 1.06 1.05 1.06
0.70 0.77 0.81 0.85 0.87 0.90 0.91 0.93 0.98 1.00 1.00 1.01 1.09 1.10 1.10 1.08 1.04 1.00 0.99 1.01 1.01 1.03
0.67 0.71 0.77 0.83 0.87 0.89 0.93 0.93 0.91 0.90 0.93 0.94 0.95 0.98 0.99 1.00 1.00 1.00 1.00 1.01 1.03 1.05
0.73 0.74 0.76 0.79 0.83 0.88 0.91 0.94 0.95 0.92 0.90 0.91 0.90 0.90 0.95 0.99 0.99 0.99 0.99 1.06 1.09 1.09
0.95 0.87 0.78 0.79 0.81 0.85 0.89 0.91 0.93 0.91 0.90 0.89 0.89 0.87 0.86 0.89 0.91 0.91 0.91 0.89 0.94 1.00
1.05 0.99 0.96 0.89 0.85 0.83 0.86 0.92 0.91 0.91 0.90 0.88 0.91 0.92 0.87 0.86 0.87 0.87 0.87 0.88 0.89 0.89
1.09 1.06 1.06 1.03 0.99 0.92 0.92 0.90 0.93 0.94 0.95 0.94 0.93 0.94 0.93 0.91 0.89 0.87 0.87 0.88 0.88 0.88
1.13 1.10 1.09 1.08 1.10 1.11 1.05 0.96 0.94 0.96 0.99 0.98 1.00 1.03 1.02 1.01 0.97 0.92 0.90 0.91 0.93 0.91
1.01 1.08 1.06 1.10 1.11 1.15 1.18 1.15 1.12 1.06 1.04 1.05 1.04 1.06 1.09 1.09 1.02 0.95 0.92 0.92 0.92 0.92
0.92 0.95 0.98 1.09 1.16 1.17 1.19 1.19 1.17 1.15 1.15 1.13 1.09 1.08 1.11 1.07 1.05 1.01 0.95 0.91 0.89 0.85

GFSNIL_prec_pwat_102.txt.gz
Precipitable_Water
0.67 0.70 0.78 0.90 1.02 1.12 1.12 1.11 1.21 1.27 1.28 1.29 1.35 1.29 1.23 1.10 1.12 1.13 1.12 1.10 1.07 0.97
0.67 0.74 0.81 0.90 1.05 1.18 1.19 1.18 1.23 1.28 1.27 1.31 1.29 1.30 1.28 1.14 1.15 1.14 1.13 1.07 1.04 0.95
0.68 0.79 0.85 0.90 0.93 1.12 1.20 1.21 1.23 1.25 1.28 1.30 1.30 1.30 1.25 1.21 1.18 1.14 1.11 1.15 1.03 1.02
0.69 0.79 0.84 0.87 0.91 0.96 1.05 1.13 1.18 1.21 1.23 1.23 1.25 1.26 1.22 1.21 1.18 1.10 1.12 1.10 1.07 1.04
0.70 0.77 0.81 0.85 0.90 0.93 0.95 1.00 1.11 1.18 1.20 1.20 1.20 1.21 1.19 1.13 1.13 1.09 1.10 1.09 1.06 1.04
0.69 0.73 0.79 0.85 0.91 0.93 0.93 0.95 0.99 1.03 1.07 1.09 1.09 1.15 1.18 1.15 1.12 1.13 1.12 1.09 1.05 1.04
0.69 0.72 0.79 0.86 0.89 0.92 0.93 0.94 0.96 0.96 0.96 1.01 1.03 1.09 1.12 1.11 1.08 1.07 1.06 1.04 1.05 1.04
0.78 0.74 0.77 0.81 0.86 0.90 0.92 0.90 0.92 0.94 0.95 0.94 0.99 1.00 1.04 1.05 1.03 1.03 1.04 1.03 1.03 1.03
0.98 0.88 0.80 0.79 0.81 0.84 0.87 0.89 0.89 0.89 0.91 0.91 0.91 0.96 0.97 1.00 0.99 0.99 0.99 0.98 0.99 1.00
1.07 1.04 1.00 0.96 0.86 0.81 0.81 0.86 0.88 0.90 0.90 0.89 0.90 0.90 0.90 0.90 0.89 0.90 0.92 0.93 0.95 0.95
1.15 1.11 1.12 1.09 1.05 1.00 0.92 0.84 0.85 0.89 0.93 0.93 0.94 0.94 0.93 0.93 0.91 0.86 0.83 0.85 0.88 0.89
1.16 1.11 1.10 1.10 1.09 1.08 1.05 1.04 1.00 0.90 0.90 0.93 0.95 1.00 1.00 0.98 0.96 0.94 0.92 0.89 0.88 0.87
1.08 1.07 1.03 1.04 1.06 1.11 1.13 1.11 1.12 1.12 1.10 1.02 0.95 1.00 1.04 1.06 1.04 0.97 0.95 0.95 0.95 0.95
0.91 0.91 0.92 0.97 1.04 1.06 1.11 1.14 1.10 1.07 1.07 1.09 1.11 1.08 1.04 1.03 1.04 1.03 0.99 0.97 0.94 0.94

GFSNIL_prec_pwat_105.txt.gz
Precipitable_Water
1.10 0.96 0.71 0.70 0.84 0.93 1.08 1.18 1.22 1.20 1.22 1.23 1.28 1.31 1.28 1.21 1.19 1.12 1.12 1.17 1.12 1.06
1.06 0.83 0.67 0.79 0.87 0.94 1.14 1.20 1.23 1.24 1.23 1.27 1.24 1.27 1.26 1.18 1.12 1.10 1.15 1.15 1.16 1.11
1.02 0.76 0.73 0.84 0.85 0.93 1.06 1.20 1.21 1.23 1.24 1.26 1.29 1.29 1.24 1.17 1.17 1.15 1.15 1.16 1.15 1.15
0.92 0.70 0.79 0.83 0.88 0.93 1.00 1.03 1.11 1.19 1.24 1.26 1.27 1.28 1.25 1.23 1.20 1.11 1.14 1.18 1.13 1.16
0.83 0.71 0.80 0.83 0.88 0.94 0.95 0.98 1.00 1.10 1.18 1.22 1.25 1.26 1.24 1.20 1.20 1.16 1.14 1.13 1.09 1.11
0.75 0.71 0.81 0.86 0.90 0.94 0.95 0.98 0.98 1.00 1.04 1.09 1.14 1.13 1.15 1.17 1.15 1.13 1.14 1.08 1.12 1.10
0.73 0.72 0.80 0.87 0.91 0.93 0.96 0.96 0.99 1.00 0.97 0.99 1.01 1.00 1.07 1.11 1.11 1.06 1.06 1.09 1.09 1.07
0.78 0.75 0.79 0.84 0.89 0.92 0.93 0.94 0.96 0.97 0.98 0.96 0.97 0.98 1.00 1.02 1.02 1.02 1.04 1.06 1.08 1.09
0.93 0.81 0.77 0.80 0.84 0.88 0.89 0.93 0.93 0.91 0.91 0.93 0.95 0.97 0.99 1.00 1.01 1.01 1.01 0.99 1.03 1.06
1.11 1.02 0.92 0.86 0.82 0.81 0.84 0.88 0.89 0.90 0.90 0.89 0.93 0.95 0.95 0.97 0.97 0.97 0.98 0.99 1.01 1.02
1.16 1.12 1.11 1.08 1.02 0.99 0.95 0.88 0.85 0.85 0.87 0.91 0.94 0.97 0.96 0.95 0.95 0.94 0.94 0.96 0.96 0.96
1.16 1.13 1.11 1.08 1.10 1.12 1.10 1.06 1.03 1.00 0.94 0.89 0.91 0.98 1.00 0.99 0.95 0.92 0.93 0.95 0.97 0.96
1.02 0.99 1.04 1.05 1.08 1.11 1.12 1.11 1.12 1.07 1.04 1.03 1.01 1.00 1.01 1.01 1.00 0.96 0.96 0.95 0.97 0.99
0.99 0.97 0.98 0.99 1.00 1.01 1.05 1.03 1.00 0.99 1.00 1.02 1.04 1.06 1.09 1.11 1.08 1.01 0.93 0.94 0.96 0.97

GFSNIL_prec_pwat_108.txt.gz
Precipitable_Water
1.02 1.05 1.13 1.12 0.90 0.68 0.77 0.93 1.16 1.25 1.23 1.21 1.31 1.31 1.32 1.30 1.32 1.31 1.27 1.24 1.23 1.18
1.04 1.09 1.15 1.13 0.81 0.75 0.89 0.98 1.19 1.25 1.20 1.21 1.22 1.23 1.26 1.29 1.28 1.31 1.29 1.27 1.24 1.15
1.09 1.15 1.19 1.06 0.70 0.82 0.89 0.96 1.11 1.23 1.24 1.24 1.25 1.25 1.24 1.26 1.24 1.31 1.30 1.29 1.22 1.19
1.11 1.17 1.19 0.87 0.77 0.85 0.90 0.95 1.03 1.13 1.21 1.23 1.23 1.27 1.25 1.23 1.24 1.24 1.25 1.26 1.21 1.15
1.14 1.19 1.09 0.76 0.82 0.87 0.89 0.95 0.98 1.00 1.09 1.18 1.23 1.25 1.24 1.23 1.24 1.21 1.20 1.19 1.18 1.14
1.14 1.15 0.93 0.76 0.84 0.88 0.90 0.92 0.94 0.98 1.02 1.11 1.20 1.22 1.23 1.22 1.23 1.21 1.19 1.16 1.10 1.09
1.15 1.10 0.82 0.79 0.86 0.90 0.92 0.93 0.95 0.96 0.96 0.99 1.03 1.07 1.08 1.12 1.15 1.18 1.20 1.20 1.18 1.13
1.19 1.00 0.81 0.81 0.87 0.92 0.93 0.96 0.98 0.98 0.98 0.98 0.98 1.00 1.00 1.04 1.03 1.05 1.07 1.10 1.11 1.06
1.13 0.86 0.80 0.80 0.86 0.89 0.91 0.94 0.97 0.96 0.94 0.95 0.94 0.96 0.96 0.99 1.01 0.99 0.98 0.98 1.04 1.05
1.04 0.84 0.80 0.80 0.84 0.85 0.87 0.91 0.92 0.94 0.94 0.92 0.94 0.96 0.95 0.95 0.94 0.95 0.95 0.95 0.96 0.97
1.14 1.03 0.91 0.84 0.81 0.83 0.85 0.87 0.88 0.91 0.93 0.92 0.94 0.96 0.97 0.97 0.97 0.96 0.95 0.96 0.96 0.95
1.13 1.12 1.11 1.06 1.04 1.02 0.99 0.96 0.96 0.96 0.94 0.92 0.92 0.95 0.98 0.99 0.98 0.98 0.99 1.01 1.01 1.00
1.10 1.10 1.08 1.08 1.09 1.12 1.14 1.13 1.11 1.07 1.06 1.05 1.02 1.02 1.04 1.03 1.02 0.99 1.00 1.03 1.02 1.02
1.05 1.06 1.05 1.04 1.05 1.08 1.09 1.07 1.03 1.01 1.02 1.02 1.02 1.04 1.08 1.08 1.06 1.04 1.00 0.98 0.97 0.98

GFSNIL_prec_pwat_111.txt.gz
Precipitable_Water
1.00 1.05 1.12 1.10 1.05 1.07 1.12 1.10 0.85 0.89 1.04 1.18 1.25 1.28 1.31 1.30 1.33 1.29 1.30 1.29 1.26 1.22
1.00 1.08 1.10 1.10 1.11 1.11 1.13 0.95 0.82 0.96 1.05 1.18 1.21 1.20 1.27 1.29 1.26 1.26 1.28 1.25 1.25 1.22
0.97 1.10 1.13 1.11 1.07 1.11 1.08 0.85 0.90 0.95 1.07 1.20 1.21 1.18 1.24 1.25 1.24 1.26 1.27 1.27 1.27 1.28
0.96 1.06 1.13 1.10 1.11 1.11 0.93 0.89 0.89 0.95 1.02 1.11 1.22 1.25 1.21 1.23 1.20 1.22 1.23 1.25 1.27 1.26
0.96 1.06 1.11 1.11 1.11 1.05 0.90 0.90 0.89 0.97 1.00 1.03 1.09 1.23 1.26 1.22 1.22 1.22 1.19 1.21 1.24 1.25
0.98 1.08 1.09 1.13 1.11 0.92 0.94 0.87 0.89 0.92 0.94 0.96 1.06 1.14 1.23 1.25 1.24 1.25 1.25 1.24 1.23 1.23
1.02 1.10 1.11 1.16 1.04 0.91 0.96 0.87 0.88 0.90 0.93 0.96 1.04 1.10 1.14 1.18 1.19 1.22 1.24 1.25 1.25 1.24
1.08 1.13 1.17 1.15 0.93 0.97 0.94 0.90 0.92 0.91 0.93 0.93 0.93 0.97 0.98 1.01 1.06 1.10 1.18 1.22 1.24 1.24
1.10 1.15 1.16 1.08 0.93 0.97 0.91 0.92 0.95 0.92 0.93 0.92 0.92 0.93 0.96 0.97 0.98 1.00 1.00 1.03 1.10 1.14
1.08 1.11 1.15 0.99 0.95 0.94 0.88 0.93 0.94 0.94 0.95 0.93 0.93 0.91 0.92 0.93 0.95 0.95 0.96 0.97 0.99 1.00
1.13 1.16 1.08 0.96 0.91 0.91 0.91 0.90 0.91 0.93 0.96 0.95 0.94 0.94 0.94 0.94 0.94 0.93 0.94 0.95 0.94 0.94
1.15 1.11 1.06 0.92 0.88 0.89 0.90 0.91 0.91 0.93 0.93 0.93 0.93 0.95 0.95 0.95 0.95 0.93 0.93 0.97 0.98 0.97
1.09 1.11 1.05 0.92 0.87 0.90 0.91 0.89 0.86 0.85 0.87 0.87 0.89 0.92 0.94 0.96 0.96 0.93 0.94 0.98 0.98 1.01
1.05 1.06 1.09 1.09 1.03 1.03 1.04 1.03 1.02 1.01 1.00 1.01 1.01 1.00 1.04 1.05 1.05 1.02 0.98 0.95 0.94 0.97

GFSNIL_prec_pwat_117.txt.gz
Precipitable_Water
0.86 0.97 1.01 1.05 1.03 0.99 0.97 1.06 1.13 1.18 1.21 1.21 1.23 1.28 1.22 0.95 0.96 1.08 1.15 1.16 1.21 1.20
0.74 0.86 0.94 0.98 1.01 1.01 1.06 1.16 1.17 1.19 1.22 1.22 1.24 1.26 1.09 0.95 0.98 1.08 1.14 1.20 1.25 1.27
0.66 0.78 0.92 0.96 0.95 0.96 1.05 1.24 1.24 1.19 1.20 1.19 1.23 1.20 1.02 1.01 1.01 1.06 1.14 1.22 1.26 1.28
0.70 0.76 0.84 0.91 0.95 0.94 1.08 1.13 1.22 1.21 1.17 1.17 1.16 1.09 1.03 1.00 0.99 1.05 1.13 1.20 1.25 1.25
0.79 0.88 0.87 0.91 0.91 0.99 1.10 1.15 1.23 1.21 1.15 1.11 1.05 1.07 1.05 0.96 1.00 1.04 1.08 1.17 1.18 1.16
0.79 0.99 1.01 0.99 0.96 0.99 1.10 1.13 1.21 1.18 1.13 1.03 1.02 1.06 1.05 0.98 0.99 1.03 1.12 1.18 1.22 1.17
0.79 0.97 1.01 1.01 0.93 1.01 1.10 1.11 1.18 1.14 1.12 1.04 1.03 1.05 1.02 0.97 1.00 1.07 1.13 1.20 1.26 1.27
0.82 0.96 1.00 0.99 0.98 1.07 1.11 1.13 1.19 1.12 1.09 1.06 1.01 1.02 0.99 0.98 0.98 1.03 1.08 1.12 1.18 1.24
0.85 0.97 1.00 0.98 0.97 1.08 1.13 1.13 1.17 1.10 1.06 1.02 1.00 1.02 0.98 0.98 0.97 1.01 0.98 0.99 1.07 1.19
0.85 0.98 1.00 1.03 1.00 1.05 1.13 1.10 1.12 1.09 1.05 0.98 0.99 1.01 0.97 0.97 0.98 0.97 0.98 1.00 1.00 1.05
0.86 0.94 1.04 1.01 1.02 1.10 1.14 1.15 1.10 1.09 1.05 1.01 0.98 1.02 0.95 0.92 0.93 0.91 0.92 0.95 0.97 0.98
0.86 0.95 1.08 1.10 1.10 1.13 1.14 1.13 1.13 1.11 1.05 1.00 0.99 1.02 0.96 0.92 0.89 0.87 0.88 0.91 0.93 0.94
0.85 0.92 1.04 1.13 1.16 1.19 1.13 1.08 1.09 1.05 1.03 1.00 0.99 1.00 0.96 0.94 0.93 0.84 0.85 0.87 0.89 0.93
0.82 0.93 1.00 1.06 1.12 1.11 1.10 1.06 1.06 0.99 0.97 0.97 0.99 0.97 0.97 0.94 0.91 0.87 0.85 0.84 0.85 0.89

GFSNIL_prec_pwat_120.txt.gz
Precipitable_Water
0.83 0.83 0.84 0.91 1.03 1.06 1.07 1.10 1.14 1.13 1.12 1.17 1.26 1.27 1.26 1.23 1.23 1.27 1.10 0.92 1.06 1.14
0.65 0.63 0.66 0.74 0.92 1.02 1.10 1.06 1.05 1.04 1.05 1.10 1.19 1.23 1.22 1.23 1.21 1.23 1.00 0.95 1.08 1.13
0.61 0.61 0.67 0.68 0.73 0.93 1.01 1.05 1.02 1.05 1.11 1.14 1.16 1.19 1.22 1.21 1.22 1.17 0.95 1.02 1.04 1.13
0.58 0.60 0.69 0.72 0.73 0.83 1.00 1.07 1.00 1.02 1.10 1.25 1.18 1.20 1.20 1.19 1.20 1.04 0.96 1.00 1.03 1.10
0.60 0.60 0.65 0.77 0.82 0.84 0.97 1.06 1.00 1.01 1.08 1.24 1.23 1.17 1.16 1.15 1.12 0.98 0.96 0.98 1.05 1.09
0.59 0.64 0.70 0.81 0.99 1.00 0.99 1.00 0.99 1.02 1.06 1.09 1.25 1.16 1.16 1.10 1.04 1.02 0.99 0.99 1.05 1.09
0.58 0.64 0.74 0.84 1.00 1.07 1.04 1.04 0.98 1.01 1.08 1.25 1.24 1.15 1.08 1.01 1.03 1.05 0.98 1.03 1.08 1.13
0.59 0.66 0.74 0.83 0.97 1.05 1.06 1.07 1.00 1.02 1.13 1.14 1.20 1.12 1.01 1.01 1.03 1.01 0.96 1.03 1.07 1.14
0.56 0.66 0.76 0.85 0.94 0.99 1.01 1.04 1.01 1.10 1.03 1.15 1.15 1.08 1.03 1.01 0.99 1.02 0.97 0.99 1.04 1.11
0.57 0.65 0.76 0.82 0.91 0.99 0.95 1.01 1.05 1.13 0.99 1.10 1.14 1.06 1.00 1.00 1.01 1.01 0.96 0.98 1.00 1.02
0.55 0.62 0.73 0.83 0.85 0.98 0.98 0.96 0.99 1.12 1.23 1.10 1.09 1.04 1.00 0.99 1.00 1.00 0.97 1.00 0.98 1.00
0.56 0.62 0.71 0.79 0.87 1.01 0.99 0.94 1.02 1.08 1.12 1.07 1.03 1.02 0.99 0.98 0.97 0.97 0.92 0.94 0.97 0.99
0.59 0.64 0.72 0.82 0.90 1.03 1.04 0.91 1.07 1.11 1.08 1.06 0.99 1.01 1.00 0.98 0.95 0.89 0.84 0.85 0.88 0.92
0.60 0.65 0.75 0.85 0.90 0.96 1.01 1.01 1.08 1.04 1.07 1.05 1.02 1.02 1.02 0.99 0.95 0.90 0.85 0.83 0.84 0.88

GFSNIL_prec_pwat_123.txt.gz
Precipitable_Water
0.94 0.93 0.93 0.97 0.98 1.05 1.16 1.18 1.20 1.22 1.31 1.34 1.29 1.30 1.25 1.19 1.19 1.17 1.21 1.19 1.19 1.16
0.80 0.79 0.77 0.78 0.81 0.82 0.98 1.06 1.10 1.11 1.13 1.19 1.14 1.12 1.10 1.14 1.17 1.20 1.18 1.16 1.20 1.17
0.78 0.77 0.74 0.74 0.73 0.73 0.76 0.87 0.94 0.98 1.06 1.11 1.06 1.01 1.04 1.12 1.20 1.18 1.19 1.20 1.18 1.17
0.69 0.69 0.68 0.67 0.66 0.69 0.76 0.77 0.83 0.91 1.00 1.03 0.97 1.01 1.03 1.12 1.16 1.13 1.15 1.19 1.15 1.07
0.58 0.56 0.56 0.58 0.64 0.68 0.73 0.84 0.83 0.90 0.98 0.99 1.00 0.99 1.04 1.14 1.13 1.12 1.11 1.14 1.13 0.98
0.51 0.53 0.55 0.58 0.64 0.69 0.78 0.89 0.87 0.91 0.98 0.98 1.01 0.96 1.07 1.18 1.13 1.12 1.14 1.13 1.06 0.97
0.47 0.52 0.54 0.58 0.64 0.72 0.84 0.94 0.93 0.94 1.02 1.01 0.98 0.99 1.07 1.14 1.19 1.13 1.14 1.13 1.03 1.03
0.50 0.54 0.56 0.59 0.63 0.72 0.86 0.97 1.03 1.04 1.07 1.03 0.99 1.02 1.07 1.15 1.20 1.12 1.07 1.02 1.02 1.05
0.48 0.48 0.51 0.55 0.62 0.69 0.81 0.97 1.09 1.07 0.99 1.00 0.99 1.07 1.14 1.27 1.18 1.08 0.98 0.96 1.03 1.04
0.49 0.48 0.49 0.53 0.59 0.70 0.80 0.94 0.96 1.04 1.03 1.01 1.00 1.13 1.17 1.16 1.11 1.03 0.99 0.98 0.97 1.00
0.49 0.48 0.52 0.54 0.59 0.72 0.83 0.89 0.99 0.98 0.98 1.00 0.99 1.14 1.13 1.20 1.07 1.03 0.99 0.99 1.01 1.02
0.48 0.48 0.50 0.54 0.60 0.71 0.80 0.84 0.98 0.97 0.98 1.02 1.07 1.11 1.21 1.14 1.03 0.98 0.95 0.99 1.00 1.01
0.50 0.50 0.50 0.56 0.62 0.72 0.79 0.91 0.95 0.93 0.96 0.98 1.07 1.11 1.12 1.07 1.03 0.92 0.89 0.90 0.96 0.97
0.52 0.51 0.53 0.57 0.63 0.72 0.81 0.84 0.90 0.90 0.90 1.02 1.10 1.14 1.17 1.16 1.02 0.91 0.86 0.87 0.90 0.91

GFSNIL_prec_pwat_126.txt.gz
Precipitable_Water
1.00 1.02 1.08 1.12 1.14 1.15 1.29 1.37 1.34 1.35 1.38 1.33 1.31 1.28 1.35 1.37 1.29 1.28 1.24 1.14 1.15 1.19
0.94 0.95 0.94 0.95 1.00 1.03 1.02 1.03 1.12 1.17 1.19 1.20 1.20 1.18 1.22 1.21 1.26 1.25 1.17 1.13 1.14 1.16
0.85 0.85 0.83 0.81 0.78 0.79 0.79 0.81 0.82 0.96 1.03 1.06 1.09 1.09 1.10 1.08 1.12 1.03 1.00 1.08 1.10 1.17
0.80 0.79 0.79 0.76 0.74 0.73 0.74 0.76 0.77 0.79 0.86 0.97 1.00 1.04 1.02 1.01 1.03 0.94 0.91 1.03 1.12 1.15
0.79 0.77 0.73 0.69 0.67 0.66 0.62 0.65 0.67 0.76 0.82 0.82 0.94 1.01 1.00 0.97 0.97 0.92 0.91 1.01 1.09 1.13
0.67 0.64 0.61 0.60 0.58 0.56 0.56 0.60 0.65 0.71 0.77 0.78 0.85 0.97 1.01 1.00 0.96 1.00 0.98 1.05 1.08 1.11
0.58 0.54 0.53 0.51 0.51 0.52 0.56 0.59 0.64 0.75 0.88 0.89 0.90 0.98 1.02 1.02 1.02 1.01 1.05 1.12 1.13 1.15
0.51 0.51 0.49 0.49 0.49 0.50 0.54 0.58 0.66 0.73 0.91 0.96 0.98 0.99 1.05 1.07 1.03 1.00 1.01 1.15 1.15 1.15
0.49 0.49 0.48 0.48 0.48 0.49 0.51 0.56 0.66 0.75 0.88 0.94 1.02 1.01 1.09 1.10 1.00 1.00 1.03 1.09 1.18 1.19
0.47 0.45 0.45 0.46 0.48 0.49 0.50 0.55 0.62 0.76 0.90 0.96 1.01 1.06 1.09 1.09 1.06 1.05 1.05 1.12 1.19 1.10
0.46 0.45 0.46 0.46 0.45 0.48 0.52 0.55 0.65 0.75 0.92 0.95 1.04 1.08 1.07 1.09 1.07 1.08 1.12 1.20 1.15 1.05
0.45 0.45 0.44 0.45 0.47 0.50 0.53 0.57 0.68 0.81 0.91 1.00 0.96 0.99 1.03 1.05 1.08 1.08 1.14 1.17 1.13 1.05
0.47 0.46 0.44 0.45 0.47 0.51 0.57 0.61 0.69 0.81 0.85 0.99 0.96 0.98 1.00 1.05 1.01 1.08 1.09 1.09 1.07 1.03
0.46 0.47 0.46 0.45 0.47 0.53 0.58 0.62 0.67 0.79 0.84 0.89 0.94 0.98 1.12 1.04 1.06 1.00 0.97 1.06 1.02 0.98

GFSNIL_prec_pwat_132.txt.gz
Precipitable_Water
1.41 1.40 1.32 1.38 1.38 1.35 1.27 1.28 1.34 1.35 1.35 1.36 1.37 1.27 1.20 1.21 1.30 1.35 1.39 1.36 1.41 1.36
1.17 1.29 1.20 1.23 1.23 1.19 1.21 1.18 1.27 1.27 1.26 1.27 1.26 1.24 1.22 1.22 1.21 1.31 1.31 1.32 1.33 1.26
1.03 1.01 1.02 1.03 1.01 1.01 1.04 1.07 1.10 1.14 1.20 1.23 1.28 1.28 1.26 1.22 1.22 1.21 1.25 1.29 1.29 1.24
0.87 0.89 0.91 0.91 0.94 0.97 1.02 1.04 1.06 1.08 1.10 1.12 1.15 1.21 1.24 1.24 1.21 1.19 1.20 1.25 1.28 1.26
0.80 0.80 0.79 0.81 0.82 0.86 0.88 0.91 0.91 0.93 0.92 0.91 0.91 0.93 0.91 0.96 1.02 1.02 0.97 0.97 1.08 1.17
0.77 0.79 0.81 0.83 0.86 0.89 0.86 0.88 0.87 0.83 0.81 0.81 0.81 0.80 0.80 0.80 0.79 0.80 0.82 0.88 0.93 1.00
0.80 0.79 0.78 0.80 0.81 0.81 0.83 0.82 0.80 0.79 0.77 0.75 0.74 0.71 0.67 0.68 0.68 0.71 0.77 0.83 0.89 0.90
0.81 0.79 0.79 0.75 0.76 0.73 0.71 0.71 0.70 0.67 0.63 0.61 0.59 0.60 0.60 0.63 0.68 0.72 0.74 0.79 0.87 0.87
0.71 0.75 0.71 0.68 0.65 0.63 0.57 0.54 0.53 0.53 0.52 0.53 0.55 0.56 0.57 0.60 0.63 0.75 0.76 0.78 0.85 0.89
0.65 0.62 0.57 0.56 0.53 0.51 0.50 0.50 0.49 0.49 0.49 0.49 0.50 0.54 0.57 0.60 0.63 0.68 0.81 0.87 0.89 0.89
0.53 0.51 0.49 0.48 0.47 0.47 0.46 0.45 0.45 0.45 0.47 0.49 0.54 0.55 0.53 0.56 0.62 0.72 0.82 0.93 0.93 0.92
0.47 0.45 0.42 0.42 0.42 0.42 0.42 0.42 0.43 0.45 0.46 0.48 0.52 0.55 0.56 0.57 0.64 0.76 0.84 0.94 1.00 1.01
0.43 0.43 0.41 0.41 0.41 0.41 0.40 0.40 0.42 0.43 0.47 0.50 0.52 0.57 0.59 0.60 0.68 0.76 0.85 0.97 1.03 1.05
0.43 0.42 0.42 0.41 0.41 0.39 0.39 0.40 0.40 0.41 0.44 0.49 0.53 0.57 0.63 0.68 0.73 0.79 0.83 0.88 0.96 1.06

GFSNIL_prec_pwat_135.txt.gz
Precipitable_Water
1.19 1.45 1.43 1.27 1.23 1.22 1.18 1.27 1.52 1.58 1.51 1.55 1.49 1.39 1.30 1.24 1.22 1.13 1.16 1.27 1.28 1.32
1.13 1.37 1.48 1.40 1.49 1.41 1.46 1.50 1.56 1.50 1.40 1.37 1.37 1.34 1.34 1.27 1.17 1.18 1.18 1.17 1.21 1.24
1.13 1.27 1.38 1.41 1.25 1.30 1.41 1.44 1.49 1.43 1.40 1.38 1.33 1.34 1.33 1.28 1.25 1.20 1.17 1.15 1.14 1.17
1.13 1.18 1.28 1.30 1.31 1.32 1.35 1.35 1.27 1.22 1.19 1.21 1.29 1.32 1.32 1.30 1.29 1.23 1.19 1.18 1.12 1.10
1.06 1.08 1.18 1.18 1.15 1.18 1.13 1.16 1.08 1.04 1.02 1.03 1.07 1.12 1.15 1.21 1.25 1.20 1.17 1.15 1.16 1.13
0.88 0.93 1.02 1.00 1.02 1.01 0.98 0.96 0.96 0.96 0.92 0.92 0.96 0.99 1.01 1.02 1.02 1.03 1.05 1.06 1.04 1.04
0.83 0.86 0.85 0.84 0.88 0.90 0.89 0.87 0.85 0.84 0.82 0.83 0.87 0.88 0.87 0.85 0.85 0.87 0.88 0.88 0.89 0.85
0.82 0.82 0.83 0.82 0.82 0.81 0.79 0.81 0.82 0.82 0.83 0.83 0.84 0.82 0.81 0.80 0.81 0.80 0.79 0.79 0.78 0.79
0.74 0.76 0.79 0.82 0.80 0.78 0.79 0.75 0.79 0.77 0.75 0.72 0.73 0.73 0.69 0.65 0.61 0.61 0.59 0.59 0.67 0.80
0.72 0.73 0.69 0.71 0.72 0.73 0.73 0.72 0.64 0.59 0.56 0.54 0.55 0.53 0.53 0.52 0.51 0.51 0.52 0.54 0.58 0.66
0.60 0.60 0.61 0.60 0.55 0.56 0.57 0.54 0.50 0.50 0.50 0.50 0.51 0.51 0.50 0.50 0.51 0.53 0.54 0.55 0.59 0.65
0.52 0.50 0.51 0.51 0.50 0.49 0.49 0.50 0.49 0.48 0.47 0.46 0.46 0.47 0.49 0.50 0.52 0.54 0.56 0.61 0.68 0.73
0.47 0.47 0.46 0.46 0.46 0.45 0.43 0.42 0.44 0.43 0.45 0.45 0.44 0.46 0.47 0.49 0.51 0.52 0.56 0.63 0.72 0.80
0.44 0.43 0.44 0.44 0.44 0.43 0.41 0.42 0.41 0.41 0.42 0.42 0.43 0.44 0.45 0.47 0.51 0.51 0.55 0.59 0.70 0.83

GFSNIL_prec_pwat_138.txt.gz
Precipitable_Water
0.64 0.65 0.65 1.29 1.34 1.40 1.34 1.27 1.21 1.08 1.07 1.07 1.19 1.22 1.22 1.21 1.25 1.29 1.29 1.21 1.17 1.16
0.75 0.74 0.69 1.01 1.45 1.40 1.45 1.42 1.32 1.22 1.13 1.20 1.29 1.37 1.44 1.38 1.31 1.25 1.20 1.15 1.18 1.17
0.76 0.83 0.82 0.83 1.31 1.41 1.52 1.53 1.48 1.31 1.32 1.41 1.54 1.56 1.50 1.33 1.28 1.23 1.23 1.21 1.21 1.20
0.76 0.83 0.81 0.89 1.10 1.29 1.42 1.37 1.39 1.27 1.30 1.57 1.51 1.42 1.48 1.40 1.36 1.29 1.26 1.28 1.24 1.18
0.85 0.83 0.82 0.82 1.12 1.12 1.29 1.36 1.35 1.27 1.26 1.37 1.33 1.35 1.33 1.36 1.37 1.27 1.25 1.28 1.28 1.25
0.77 0.80 0.80 0.91 1.01 1.15 1.07 1.17 1.28 1.27 1.26 1.22 1.25 1.22 1.22 1.14 1.11 1.11 1.14 1.18 1.22 1.22
0.75 0.77 0.87 0.92 1.02 1.09 1.06 1.13 1.11 1.13 1.16 1.14 1.12 1.08 1.05 0.98 1.01 1.00 1.00 1.01 1.03 1.04
0.77 0.80 0.80 0.88 0.87 0.97 1.00 1.01 1.04 1.02 0.98 0.93 0.90 0.85 0.83 0.82 0.82 0.80 0.81 0.83 0.85 0.89
0.73 0.77 0.77 0.83 0.85 0.87 0.87 0.89 0.90 0.84 0.85 0.83 0.83 0.80 0.81 0.80 0.75 0.73 0.74 0.73 0.76 0.79
0.69 0.71 0.73 0.73 0.78 0.78 0.80 0.84 0.84 0.83 0.83 0.81 0.78 0.75 0.73 0.70 0.67 0.63 0.62 0.59 0.55 0.55
0.61 0.60 0.61 0.63 0.63 0.61 0.63 0.64 0.64 0.67 0.69 0.66 0.65 0.62 0.59 0.57 0.55 0.52 0.52 0.52 0.51 0.53
0.51 0.53 0.53 0.53 0.54 0.55 0.54 0.53 0.54 0.57 0.55 0.51 0.51 0.51 0.50 0.48 0.47 0.45 0.47 0.51 0.55 0.56
0.46 0.46 0.49 0.49 0.48 0.49 0.49 0.49 0.47 0.48 0.50 0.50 0.47 0.45 0.42 0.42 0.41 0.41 0.44 0.51 0.55 0.59
0.47 0.44 0.43 0.43 0.45 0.45 0.46 0.45 0.43 0.41 0.42 0.42 0.42 0.42 0.42 0.40 0.39 0.38 0.41 0.44 0.48 0.53

GFSNIL_prec_pwat_141.txt.gz
Precipitable_Water
0.68 0.67 0.69 0.70 0.65 0.62 0.61 1.01 1.37 1.54 1.60 1.40 1.30 1.25 1.25 1.19 1.14 1.13 1.09 1.06 1.12 1.17
0.67 0.63 0.67 0.71 0.76 0.70 0.69 0.84 1.09 1.47 1.57 1.45 1.30 1.23 1.26 1.16 1.11 1.14 1.09 1.09 1.17 1.22
0.65 0.67 0.65 0.68 0.67 0.67 0.72 0.71 0.99 1.47 1.30 1.52 1.34 1.34 1.27 1.18 1.19 1.18 1.19 1.17 1.19 1.23
0.66 0.73 0.70 0.67 0.70 0.70 0.75 0.68 0.94 1.11 1.66 1.56 1.37 1.35 1.24 1.19 1.20 1.18 1.28 1.23 1.24 1.21
0.67 0.69 0.71 0.69 0.73 0.81 0.75 0.72 0.83 1.02 1.23 1.52 1.38 1.32 1.24 1.23 1.29 1.39 1.38 1.33 1.28 1.24
0.65 0.66 0.66 0.68 0.70 0.78 0.71 0.79 0.87 1.02 1.01 1.22 1.19 1.24 1.22 1.20 1.21 1.33 1.27 1.35 1.33 1.34
0.64 0.67 0.66 0.76 0.76 0.71 0.75 0.78 0.84 1.01 1.07 1.13 1.19 1.18 1.16 1.14 1.18 1.15 1.19 1.26 1.22 1.22
0.65 0.68 0.67 0.70 0.81 0.80 0.79 0.75 0.81 0.88 0.92 1.06 1.04 1.10 1.05 1.06 1.09 1.11 1.12 1.16 1.15 1.10
0.63 0.65 0.69 0.72 0.77 0.76 0.75 0.78 0.81 0.86 0.90 1.00 0.98 1.00 0.99 1.00 1.01 0.99 0.98 0.93 0.89 0.87
0.60 0.61 0.63 0.66 0.71 0.68 0.73 0.80 0.81 0.82 0.83 0.89 0.93 0.96 0.96 0.94 0.86 0.84 0.84 0.81 0.82 0.81
0.51 0.54 0.56 0.56 0.57 0.59 0.61 0.64 0.68 0.73 0.73 0.78 0.83 0.84 0.83 0.82 0.82 0.83 0.81 0.78 0.71 0.66
0.47 0.45 0.46 0.48 0.50 0.51 0.53 0.53 0.52 0.55 0.59 0.60 0.59 0.63 0.63 0.65 0.61 0.58 0.57 0.60 0.60 0.60
0.44 0.45 0.44 0.42 0.43 0.48 0.48 0.47 0.48 0.48 0.47 0.48 0.51 0.53 0.49 0.47 0.49 0.49 0.50 0.53 0.54 0.54
0.40 0.41 0.41 0.43 0.42 0.41 0.41 0.42 0.43 0.42 0.42 0.43 0.44 0.45 0.48 0.47 0.44 0.41 0.39 0.39 0.41 0.43

GFSNIL_prec_pwat_144.txt.gz
Precipitable_Water
0.60 0.60 0.60 0.61 0.64 0.65 0.70 0.76 0.80 0.72 0.73 0.82 1.20 1.55 1.51 1.52 1.39 1.36 1.24 1.11 1.09 1.07
0.58 0.57 0.55 0.55 0.59 0.59 0.68 0.75 0.78 0.74 0.68 0.69 0.76 1.12 1.34 1.61 1.43 1.37 1.26 1.15 1.08 1.07
0.59 0.61 0.64 0.64 0.64 0.63 0.64 0.70 0.73 0.70 0.69 0.68 0.65 0.87 1.47 1.32 1.56 1.45 1.33 1.26 1.10 1.12
0.59 0.61 0.64 0.66 0.68 0.69 0.70 0.72 0.69 0.61 0.60 0.60 0.68 0.80 1.13 1.31 1.47 1.44 1.34 1.29 1.14 1.16
0.60 0.63 0.62 0.64 0.67 0.68 0.67 0.69 0.66 0.62 0.62 0.61 0.64 0.76 1.04 1.07 1.28 1.43 1.38 1.28 1.22 1.20
0.61 0.61 0.64 0.63 0.65 0.66 0.66 0.75 0.74 0.73 0.63 0.65 0.63 0.62 0.87 1.05 1.19 1.31 1.27 1.22 1.22 1.18
0.61 0.61 0.61 0.62 0.64 0.64 0.68 0.70 0.79 0.75 0.71 0.68 0.68 0.68 0.81 0.93 1.06 1.21 1.22 1.26 1.22 1.21
0.60 0.62 0.61 0.61 0.62 0.65 0.67 0.69 0.72 0.72 0.70 0.69 0.65 0.67 0.71 0.90 0.97 1.08 1.13 1.18 1.12 1.14
0.54 0.59 0.59 0.60 0.60 0.63 0.66 0.68 0.69 0.73 0.70 0.70 0.70 0.67 0.77 0.84 0.94 0.97 1.03 1.10 1.09 1.10
0.46 0.49 0.53 0.56 0.58 0.59 0.61 0.65 0.67 0.68 0.69 0.69 0.70 0.73 0.87 0.93 0.93 0.92 0.93 0.96 1.01 1.00
0.41 0.42 0.45 0.46 0.50 0.51 0.52 0.55 0.56 0.59 0.63 0.66 0.67 0.76 0.79 0.86 0.87 0.86 0.90 0.93 0.94 0.94
0.39 0.37 0.39 0.42 0.42 0.43 0.46 0.47 0.47 0.49 0.50 0.53 0.61 0.66 0.68 0.72 0.77 0.82 0.84 0.85 0.87 0.86
0.38 0.36 0.35 0.36 0.38 0.42 0.42 0.41 0.43 0.44 0.44 0.47 0.49 0.53 0.58 0.59 0.58 0.56 0.59 0.65 0.64 0.66
0.36 0.37 0.36 0.35 0.33 0.35 0.37 0.39 0.39 0.38 0.39 0.41 0.42 0.43 0.45 0.46 0.49 0.49 0.45 0.45 0.46 0.50